Location: *
(12.5665°N, 8.3471°E)
Time: 07:08:44
(UTC+00:00)

Cosmos 2360 - Pass Details

Date: 23 September 2019
Orbit: 845 x 856 km, 70.8° (Epoch: 17 October)

Event Time Altitude Azimuth Distance (km) Brightness Sun altitude
Rises 04:17:42 0° 196° (SSW) 3,395 7.1 -15.0°
Reaches altitude 10° 04:20:09 10° 197° (SSW) 2,460 6.4 -14.4°
Maximum altitude 04:25:48 88° 287° (WNW) 848 4.2 -13.0°
Drops below altitude 10° 04:31:28 10° 16° (NNE) 2,460 6.9 -11.6°
Sets 04:33:54 0° 16° (NNE) 3,396 7.6 -11.0°
